Year,Month,Day,Hour,Minute,Value (Times are PST for insolation in W/m^2)
2007,07,15,00,00,0.00
2007,07,15,00,01,0.00
2007,07,15,00,02,0.00
2007,07,15,00,03,0.00
2007,07,15,00,04,0.00
2007,07,15,00,05,0.00
2007,07,15,00,06,0.00
2007,07,15,00,07,0.00
2007,07,15,00,08,0.00
2007,07,15,00,09,0.00
2007,07,15,00,10,0.00
2007,07,15,00,11,0.00
2007,07,15,00,12,0.00
2007,07,15,00,13,0.00
2007,07,15,00,14,0.00
2007,07,15,00,15,0.00
2007,07,15,00,16,0.00
2007,07,15,00,17,0.00
2007,07,15,00,18,0.00
2007,07,15,00,19,0.00
2007,07,15,00,20,0.00
2007,07,15,00,21,0.00
2007,07,15,00,22,0.00
2007,07,15,00,23,0.00
2007,07,15,00,24,0.00
2007,07,15,00,25,0.00
2007,07,15,00,26,0.00
2007,07,15,00,27,0.00
2007,07,15,00,28,0.00
2007,07,15,00,29,0.00
2007,07,15,00,30,0.00
2007,07,15,00,31,0.00
2007,07,15,00,32,0.00
2007,07,15,00,33,0.00
2007,07,15,00,34,0.00
2007,07,15,00,35,0.00
2007,07,15,00,36,0.00
2007,07,15,00,37,0.00
2007,07,15,00,38,0.00
2007,07,15,00,39,0.00
2007,07,15,00,40,0.00
2007,07,15,00,41,0.00
2007,07,15,00,42,0.00
2007,07,15,00,43,0.00
2007,07,15,00,44,0.00
2007,07,15,00,45,0.00
2007,07,15,00,46,0.00
2007,07,15,00,47,0.00
2007,07,15,00,48,0.00
2007,07,15,00,49,0.00
2007,07,15,00,50,0.00
2007,07,15,00,51,0.00
2007,07,15,00,52,0.00
2007,07,15,00,53,0.00
2007,07,15,00,54,0.00
2007,07,15,00,55,0.00
2007,07,15,00,56,0.00
2007,07,15,00,57,0.00
2007,07,15,00,58,0.00
2007,07,15,00,59,0.00
2007,07,15,01,00,0.00
2007,07,15,01,01,0.00
2007,07,15,01,02,0.00
2007,07,15,01,03,0.00
2007,07,15,01,04,0.00
2007,07,15,01,05,0.00
2007,07,15,01,06,0.00
2007,07,15,01,07,0.00
2007,07,15,01,08,0.00
2007,07,15,01,09,0.00
2007,07,15,01,10,0.00
2007,07,15,01,11,0.00
2007,07,15,01,12,0.00
2007,07,15,01,13,0.00
2007,07,15,01,14,0.00
2007,07,15,01,15,0.00
2007,07,15,01,16,0.00
2007,07,15,01,17,0.00
2007,07,15,01,18,0.00
2007,07,15,01,19,0.00
2007,07,15,01,20,0.00
2007,07,15,01,21,0.00
2007,07,15,01,22,0.00
2007,07,15,01,23,0.00
2007,07,15,01,24,0.00
2007,07,15,01,25,0.00
2007,07,15,01,26,0.00
2007,07,15,01,27,0.00
2007,07,15,01,28,0.00
2007,07,15,01,29,0.00
2007,07,15,01,30,0.00
2007,07,15,01,31,0.00
2007,07,15,01,32,0.00
2007,07,15,01,33,0.00
2007,07,15,01,34,0.00
2007,07,15,01,35,0.00
2007,07,15,01,36,0.00
2007,07,15,01,37,0.00
2007,07,15,01,38,0.00
2007,07,15,01,39,0.00
2007,07,15,01,40,0.00
2007,07,15,01,41,0.00
2007,07,15,01,42,0.00
2007,07,15,01,43,0.00
2007,07,15,01,44,0.00
2007,07,15,01,45,0.00
2007,07,15,01,46,0.00
2007,07,15,01,47,0.00
2007,07,15,01,48,0.00
2007,07,15,01,49,0.00
2007,07,15,01,50,0.00
2007,07,15,01,51,0.00
2007,07,15,01,52,0.00
2007,07,15,01,53,0.00
2007,07,15,01,54,0.00
2007,07,15,01,55,0.00
2007,07,15,01,56,0.00
2007,07,15,01,57,0.00
2007,07,15,01,58,0.00
2007,07,15,01,59,0.00
2007,07,15,02,00,0.00
2007,07,15,02,01,0.00
2007,07,15,02,02,0.00
2007,07,15,02,03,0.00
2007,07,15,02,04,0.00
2007,07,15,02,05,0.00
2007,07,15,02,06,0.00
2007,07,15,02,07,0.00
2007,07,15,02,08,0.00
2007,07,15,02,09,0.00
2007,07,15,02,10,0.00
2007,07,15,02,11,0.00
2007,07,15,02,12,0.00
2007,07,15,02,13,0.00
2007,07,15,02,14,0.00
2007,07,15,02,15,0.00
2007,07,15,02,16,0.00
2007,07,15,02,17,0.00
2007,07,15,02,18,0.00
2007,07,15,02,19,0.00
2007,07,15,02,20,0.00
2007,07,15,02,21,0.00
2007,07,15,02,22,0.00
2007,07,15,02,23,0.00
2007,07,15,02,24,0.00
2007,07,15,02,25,0.00
2007,07,15,02,26,0.00
2007,07,15,02,27,0.00
2007,07,15,02,28,0.00
2007,07,15,02,29,0.00
2007,07,15,02,30,0.00
2007,07,15,02,31,0.00
2007,07,15,02,32,0.00
2007,07,15,02,33,0.00
2007,07,15,02,34,0.00
2007,07,15,02,35,0.00
2007,07,15,02,36,0.00
2007,07,15,02,37,0.00
2007,07,15,02,38,0.00
2007,07,15,02,39,0.00
2007,07,15,02,40,0.00
2007,07,15,02,41,0.00
2007,07,15,02,42,0.00
2007,07,15,02,43,0.00
2007,07,15,02,44,0.00
2007,07,15,02,45,0.00
2007,07,15,02,46,0.00
2007,07,15,02,47,0.00
2007,07,15,02,48,0.00
2007,07,15,02,49,0.00
2007,07,15,02,50,0.00
2007,07,15,02,51,0.00
2007,07,15,02,52,0.00
2007,07,15,02,53,0.00
2007,07,15,02,54,0.00
2007,07,15,02,55,0.00
2007,07,15,02,56,0.00
2007,07,15,02,57,0.00
2007,07,15,02,58,0.00
2007,07,15,02,59,0.00
2007,07,15,03,00,0.00
2007,07,15,03,01,0.00
2007,07,15,03,02,0.00
2007,07,15,03,03,0.00
2007,07,15,03,04,0.00
2007,07,15,03,05,0.00
2007,07,15,03,06,0.00
2007,07,15,03,07,0.00
2007,07,15,03,08,0.00
2007,07,15,03,09,0.00
2007,07,15,03,10,0.00
2007,07,15,03,11,0.00
2007,07,15,03,12,0.00
2007,07,15,03,13,0.00
2007,07,15,03,14,0.00
2007,07,15,03,15,0.00
2007,07,15,03,16,0.00
2007,07,15,03,17,0.00
2007,07,15,03,18,0.00
2007,07,15,03,19,0.00
2007,07,15,03,20,0.00
2007,07,15,03,21,0.00
2007,07,15,03,22,0.00
2007,07,15,03,23,0.00
2007,07,15,03,24,0.00
2007,07,15,03,25,0.00
2007,07,15,03,26,0.00
2007,07,15,03,27,0.00
2007,07,15,03,28,0.00
2007,07,15,03,29,0.00
2007,07,15,03,30,0.00
2007,07,15,03,31,0.00
2007,07,15,03,32,0.00
2007,07,15,03,33,0.00
2007,07,15,03,34,0.00
2007,07,15,03,35,0.00
2007,07,15,03,36,0.00
2007,07,15,03,37,0.00
2007,07,15,03,38,0.00
2007,07,15,03,39,0.00
2007,07,15,03,40,0.00
2007,07,15,03,41,0.00
2007,07,15,03,42,0.00
2007,07,15,03,43,0.00
2007,07,15,03,44,0.00
2007,07,15,03,45,0.00
2007,07,15,03,46,0.00
2007,07,15,03,47,0.00
2007,07,15,03,48,0.00
2007,07,15,03,49,0.00
2007,07,15,03,50,0.00
2007,07,15,03,51,0.00
2007,07,15,03,52,0.00
2007,07,15,03,53,0.00
2007,07,15,03,54,0.00
2007,07,15,03,55,0.00
2007,07,15,03,56,0.00
2007,07,15,03,57,0.00
2007,07,15,03,58,0.00
2007,07,15,03,59,0.00
2007,07,15,04,00,0.00
2007,07,15,04,01,0.00
2007,07,15,04,02,0.00
2007,07,15,04,03,0.00
2007,07,15,04,04,0.00
2007,07,15,04,05,0.00
2007,07,15,04,06,0.00
2007,07,15,04,07,0.00
2007,07,15,04,08,0.00
2007,07,15,04,09,0.00
2007,07,15,04,10,0.00
2007,07,15,04,11,0.00
2007,07,15,04,12,0.00
2007,07,15,04,13,0.00
2007,07,15,04,14,0.00
2007,07,15,04,15,0.00
2007,07,15,04,16,0.00
2007,07,15,04,17,0.00
2007,07,15,04,18,0.00
2007,07,15,04,19,0.00
2007,07,15,04,20,0.00
2007,07,15,04,21,0.00
2007,07,15,04,22,0.00
2007,07,15,04,23,0.00
2007,07,15,04,24,0.00
2007,07,15,04,25,0.00
2007,07,15,04,26,0.00
2007,07,15,04,27,0.00
2007,07,15,04,28,0.00
2007,07,15,04,29,0.00
2007,07,15,04,30,0.00
2007,07,15,04,31,0.00
2007,07,15,04,32,0.00
2007,07,15,04,33,0.00
2007,07,15,04,34,0.00
2007,07,15,04,35,0.00
2007,07,15,04,36,0.00
2007,07,15,04,37,0.00
2007,07,15,04,38,0.00
2007,07,15,04,39,0.00
2007,07,15,04,40,0.00
2007,07,15,04,41,0.00
2007,07,15,04,42,0.00
2007,07,15,04,43,0.00
2007,07,15,04,44,0.00
2007,07,15,04,45,0.00
2007,07,15,04,46,0.00
2007,07,15,04,47,0.00
2007,07,15,04,48,0.00
2007,07,15,04,49,0.00
2007,07,15,04,50,0.00
2007,07,15,04,51,0.00
2007,07,15,04,52,0.00
2007,07,15,04,53,0.00
2007,07,15,04,54,0.00
2007,07,15,04,55,0.00
2007,07,15,04,56,0.00
2007,07,15,04,57,0.00
2007,07,15,04,58,0.00
2007,07,15,04,59,0.00
2007,07,15,05,00,0.00
2007,07,15,05,01,0.00
2007,07,15,05,02,0.00
2007,07,15,05,03,0.00
2007,07,15,05,04,0.00
2007,07,15,05,05,0.00
2007,07,15,05,06,0.00
2007,07,15,05,07,0.00
2007,07,15,05,08,0.00
2007,07,15,05,09,0.00
2007,07,15,05,10,0.00
2007,07,15,05,11,0.00
2007,07,15,05,12,0.00
2007,07,15,05,13,0.00
2007,07,15,05,14,0.00
2007,07,15,05,15,0.00
2007,07,15,05,16,0.00
2007,07,15,05,17,0.00
2007,07,15,05,18,0.00
2007,07,15,05,19,0.00
2007,07,15,05,20,0.00
2007,07,15,05,21,0.00
2007,07,15,05,22,0.00
2007,07,15,05,23,0.00
2007,07,15,05,24,0.00
2007,07,15,05,25,0.00
2007,07,15,05,26,0.00
2007,07,15,05,27,0.00
2007,07,15,05,28,0.00
2007,07,15,05,29,0.00
2007,07,15,05,30,0.00
2007,07,15,05,31,0.00
2007,07,15,05,32,0.00
2007,07,15,05,33,0.00
2007,07,15,05,34,0.00
2007,07,15,05,35,0.00
2007,07,15,05,36,0.00
2007,07,15,05,37,0.00
2007,07,15,05,38,0.00
2007,07,15,05,39,0.00
2007,07,15,05,40,0.00
2007,07,15,05,41,0.00
2007,07,15,05,42,0.00
2007,07,15,05,43,0.00
2007,07,15,05,44,0.00
2007,07,15,05,45,0.00
2007,07,15,05,46,0.00
2007,07,15,05,47,0.00
2007,07,15,05,48,0.00
2007,07,15,05,49,5.00
2007,07,15,05,50,5.00
2007,07,15,05,51,5.00
2007,07,15,05,52,5.70
2007,07,15,05,53,7.00
2007,07,15,05,54,7.00
2007,07,15,05,55,7.00
2007,07,15,05,56,7.00
2007,07,15,05,57,8.50
2007,07,15,05,58,9.00
2007,07,15,05,59,9.00
2007,07,15,06,00,9.00
2007,07,15,06,01,9.00
2007,07,15,06,02,9.00
2007,07,15,06,03,9.00
2007,07,15,06,04,9.00
2007,07,15,06,05,10.10
2007,07,15,06,06,11.00
2007,07,15,06,07,11.00
2007,07,15,06,08,11.80
2007,07,15,06,09,13.70
2007,07,15,06,10,16.00
2007,07,15,06,11,19.20
2007,07,15,06,12,21.30
2007,07,15,06,13,23.50
2007,07,15,06,14,25.00
2007,07,15,06,15,25.00
2007,07,15,06,16,25.00
2007,07,15,06,17,25.00
2007,07,15,06,18,25.00
2007,07,15,06,19,23.50
2007,07,15,06,20,23.00
2007,07,15,06,21,23.00
2007,07,15,06,22,23.00
2007,07,15,06,23,23.00
2007,07,15,06,24,23.00
2007,07,15,06,25,22.30
2007,07,15,06,26,21.00
2007,07,15,06,27,21.00
2007,07,15,06,28,22.10
2007,07,15,06,29,21.60
2007,07,15,06,30,21.00
2007,07,15,06,31,22.60
2007,07,15,06,32,23.00
2007,07,15,06,33,25.10
2007,07,15,06,34,26.40
2007,07,15,06,35,28.00
2007,07,15,06,36,28.60
2007,07,15,06,37,30.00
2007,07,15,06,38,29.00
2007,07,15,06,39,29.10
2007,07,15,06,40,32.10
2007,07,15,06,41,36.00
2007,07,15,06,42,42.90
2007,07,15,06,43,48.50
2007,07,15,06,44,54.60
2007,07,15,06,45,60.60
2007,07,15,06,46,64.20
2007,07,15,06,47,67.60
2007,07,15,06,48,69.00
2007,07,15,06,49,67.90
2007,07,15,06,50,65.90
2007,07,15,06,51,63.70
2007,07,15,06,52,60.80
2007,07,15,06,53,55.20
2007,07,15,06,54,51.30
2007,07,15,06,55,50.90
2007,07,15,06,56,48.70
2007,07,15,06,57,47.00
2007,07,15,06,58,47.60
2007,07,15,06,59,75.80
2007,07,15,07,00,85.20
2007,07,15,07,01,57.70
2007,07,15,07,02,60.90
2007,07,15,07,03,67.40
2007,07,15,07,04,67.40
2007,07,15,07,05,63.40
2007,07,15,07,06,57.60
2007,07,15,07,07,53.80
2007,07,15,07,08,52.50
2007,07,15,07,09,51.00
2007,07,15,07,10,51.00
2007,07,15,07,11,51.00
2007,07,15,07,12,52.80
2007,07,15,07,13,56.80
2007,07,15,07,14,56.40
2007,07,15,07,15,54.40
2007,07,15,07,16,54.00
2007,07,15,07,17,54.00
2007,07,15,07,18,53.00
2007,07,15,07,19,53.30
2007,07,15,07,20,54.70
2007,07,15,07,21,57.80
2007,07,15,07,22,61.70
2007,07,15,07,23,65.40
2007,07,15,07,24,68.40
2007,07,15,07,25,69.00
2007,07,15,07,26,67.40
2007,07,15,07,27,67.10
2007,07,15,07,28,68.80
2007,07,15,07,29,67.00
2007,07,15,07,30,67.50
2007,07,15,07,31,70.80
2007,07,15,07,32,76.90
2007,07,15,07,33,85.70
2007,07,15,07,34,90.60
2007,07,15,07,35,93.60
2007,07,15,07,36,122.80
2007,07,15,07,37,113.60
2007,07,15,07,38,98.20
2007,07,15,07,39,100.20
2007,07,15,07,40,103.40
2007,07,15,07,41,99.50
2007,07,15,07,42,97.70
2007,07,15,07,43,95.40
2007,07,15,07,44,91.50
2007,07,15,07,45,86.60
2007,07,15,07,46,80.50
2007,07,15,07,47,79.00
2007,07,15,07,48,82.20
2007,07,15,07,49,87.60
2007,07,15,07,50,90.00
2007,07,15,07,51,90.00
2007,07,15,07,52,89.50
2007,07,15,07,53,88.60
2007,07,15,07,54,90.40
2007,07,15,07,55,94.10
2007,07,15,07,56,101.80
2007,07,15,07,57,109.30
2007,07,15,07,58,114.90
2007,07,15,07,59,116.00
2007,07,15,08,00,111.50
2007,07,15,08,01,104.80
2007,07,15,08,02,102.00
2007,07,15,08,03,102.80
2007,07,15,08,04,107.10
2007,07,15,08,05,114.20
2007,07,15,08,06,122.50
2007,07,15,08,07,127.60
2007,07,15,08,08,129.40
2007,07,15,08,09,133.90
2007,07,15,08,10,145.40
2007,07,15,08,11,148.00
2007,07,15,08,12,157.90
2007,07,15,08,13,155.00
2007,07,15,08,14,155.00
2007,07,15,08,15,154.30
2007,07,15,08,16,153.00
2007,07,15,08,17,152.00
2007,07,15,08,18,149.90
2007,07,15,08,19,147.10
2007,07,15,08,20,140.80
2007,07,15,08,21,133.40
2007,07,15,08,22,127.50
2007,07,15,08,23,128.70
2007,07,15,08,24,136.70
2007,07,15,08,25,149.00
2007,07,15,08,26,167.30
2007,07,15,08,27,181.10
2007,07,15,08,28,188.00
2007,07,15,08,29,206.90
2007,07,15,08,30,226.90
2007,07,15,08,31,230.00
2007,07,15,08,32,230.00
2007,07,15,08,33,230.00
2007,07,15,08,34,230.00
2007,07,15,08,35,230.00
2007,07,15,08,36,230.00
2007,07,15,08,37,328.80
2007,07,15,08,38,545.00
2007,07,15,08,39,550.00
2007,07,15,08,40,552.00
2007,07,15,08,41,550.70
2007,07,15,08,42,484.00
2007,07,15,08,43,498.80
2007,07,15,08,44,508.00
2007,07,15,08,45,164.30
2007,07,15,08,46,151.00
2007,07,15,08,47,151.00
2007,07,15,08,48,151.00
2007,07,15,08,49,151.00
2007,07,15,08,50,337.00
2007,07,15,08,51,511.40
2007,07,15,08,52,507.10
2007,07,15,08,53,508.40
2007,07,15,08,54,511.60
2007,07,15,08,55,512.90
2007,07,15,08,56,521.10
2007,07,15,08,57,537.00
2007,07,15,08,58,561.00
2007,07,15,08,59,407.40
2007,07,15,09,00,142.80
2007,07,15,09,01,141.00
2007,07,15,09,02,141.00
2007,07,15,09,03,167.70
2007,07,15,09,04,179.50
2007,07,15,09,05,179.00
2007,07,15,09,06,179.00
2007,07,15,09,07,156.60
2007,07,15,09,08,158.20
2007,07,15,09,09,135.20
2007,07,15,09,10,124.40
2007,07,15,09,11,114.90
2007,07,15,09,12,119.80
2007,07,15,09,13,128.40
2007,07,15,09,14,132.00
2007,07,15,09,15,147.80
2007,07,15,09,16,162.60
2007,07,15,09,17,176.70
2007,07,15,09,18,191.70
2007,07,15,09,19,210.00
2007,07,15,09,20,231.80
2007,07,15,09,21,250.80
2007,07,15,09,22,266.00
2007,07,15,09,23,283.50
2007,07,15,09,24,295.00
2007,07,15,09,25,287.20
2007,07,15,09,26,291.20
2007,07,15,09,27,289.20
2007,07,15,09,28,296.10
2007,07,15,09,29,311.60
2007,07,15,09,30,325.50
2007,07,15,09,31,350.20
2007,07,15,09,32,379.50
2007,07,15,09,33,355.00
2007,07,15,09,34,355.00
2007,07,15,09,35,357.20
2007,07,15,09,36,363.50
2007,07,15,09,37,396.00
2007,07,15,09,38,379.60
2007,07,15,09,39,356.80
2007,07,15,09,40,386.20
2007,07,15,09,41,349.30
2007,07,15,09,42,334.00
2007,07,15,09,43,495.70
2007,07,15,09,44,789.20
2007,07,15,09,45,778.00
2007,07,15,09,46,787.80
2007,07,15,09,47,784.60
2007,07,15,09,48,779.00
2007,07,15,09,49,779.00
2007,07,15,09,50,777.20
2007,07,15,09,51,842.10
2007,07,15,09,52,859.20
2007,07,15,09,53,843.70
2007,07,15,09,54,849.00
2007,07,15,09,55,849.00
2007,07,15,09,56,849.00
2007,07,15,09,57,849.00
2007,07,15,09,58,849.00
2007,07,15,09,59,849.00
2007,07,15,10,00,511.10
2007,07,15,10,01,465.90
2007,07,15,10,02,456.20
2007,07,15,10,03,209.60
2007,07,15,10,04,193.80
2007,07,15,10,05,208.80
2007,07,15,10,06,188.80
2007,07,15,10,07,210.00
2007,07,15,10,08,242.60
2007,07,15,10,09,262.10
2007,07,15,10,10,267.00
2007,07,15,10,11,267.00
2007,07,15,10,12,276.90
2007,07,15,10,13,288.00
2007,07,15,10,14,356.90
2007,07,15,10,15,286.80
2007,07,15,10,16,287.90
2007,07,15,10,17,334.90
2007,07,15,10,18,387.00
2007,07,15,10,19,387.00
2007,07,15,10,20,387.70
2007,07,15,10,21,446.40
2007,07,15,10,22,462.00
2007,07,15,10,23,327.90
2007,07,15,10,24,313.00
2007,07,15,10,25,310.10
2007,07,15,10,26,294.00
2007,07,15,10,27,294.00
2007,07,15,10,28,294.00
2007,07,15,10,29,316.00
2007,07,15,10,30,393.00
2007,07,15,10,31,438.00
2007,07,15,10,32,438.00
2007,07,15,10,33,789.20
2007,07,15,10,34,877.00
2007,07,15,10,35,621.00
2007,07,15,10,36,569.40
2007,07,15,10,37,303.00
2007,07,15,10,38,320.70
2007,07,15,10,39,311.00
2007,07,15,10,40,316.50
2007,07,15,10,41,315.50
2007,07,15,10,42,354.90
2007,07,15,10,43,334.20
2007,07,15,10,44,322.00
2007,07,15,10,45,322.00
2007,07,15,10,46,323.00
2007,07,15,10,47,340.30
2007,07,15,10,48,331.80
2007,07,15,10,49,347.00
2007,07,15,10,50,350.50
2007,07,15,10,51,352.50
2007,07,15,10,52,320.90
2007,07,15,10,53,313.30
2007,07,15,10,54,369.90
2007,07,15,10,55,330.30
2007,07,15,10,56,353.30
2007,07,15,10,57,371.80
2007,07,15,10,58,353.40
2007,07,15,10,59,353.20
2007,07,15,11,00,328.60
2007,07,15,11,01,317.20
2007,07,15,11,02,325.00
2007,07,15,11,03,334.80
2007,07,15,11,04,338.00
2007,07,15,11,05,392.80
2007,07,15,11,06,411.00
2007,07,15,11,07,411.00
2007,07,15,11,08,411.10
2007,07,15,11,09,427.90
2007,07,15,11,10,488.50
2007,07,15,11,11,406.60
2007,07,15,11,12,392.00
2007,07,15,11,13,417.50
2007,07,15,11,14,484.40
2007,07,15,11,15,539.60
2007,07,15,11,16,548.00
2007,07,15,11,17,443.50
2007,07,15,11,18,435.40
2007,07,15,11,19,523.80
2007,07,15,11,20,451.00
2007,07,15,11,21,399.00
2007,07,15,11,22,370.60
2007,07,15,11,23,353.90
2007,07,15,11,24,352.60
2007,07,15,11,25,355.00
2007,07,15,11,26,355.00
2007,07,15,11,27,355.00
2007,07,15,11,28,423.90
2007,07,15,11,29,426.10
2007,07,15,11,30,445.00
2007,07,15,11,31,445.00
2007,07,15,11,32,438.00
2007,07,15,11,33,399.50
2007,07,15,11,34,361.40
2007,07,15,11,35,364.50
2007,07,15,11,36,376.00
2007,07,15,11,37,376.00
2007,07,15,11,38,376.00
2007,07,15,11,39,376.00
2007,07,15,11,40,376.00
2007,07,15,11,41,376.00
2007,07,15,11,42,498.90
2007,07,15,11,43,1178.00
2007,07,15,11,44,1127.00
2007,07,15,11,45,1127.00
2007,07,15,11,46,772.00
2007,07,15,11,47,382.70
2007,07,15,11,48,348.30
2007,07,15,11,49,389.40
2007,07,15,11,50,466.30
2007,07,15,11,51,480.00
2007,07,15,11,52,382.10
2007,07,15,11,53,341.00
2007,07,15,11,54,360.10
2007,07,15,11,55,380.00
2007,07,15,11,56,608.00
2007,07,15,11,57,912.00
2007,07,15,11,58,912.00
2007,07,15,11,59,638.00
2007,07,15,12,00,501.00
2007,07,15,12,01,579.50
2007,07,15,12,02,565.80
2007,07,15,12,03,564.00
2007,07,15,12,04,546.90
2007,07,15,12,05,453.50
2007,07,15,12,06,466.50
2007,07,15,12,07,493.00
2007,07,15,12,08,511.50
2007,07,15,12,09,515.70
2007,07,15,12,10,523.80
2007,07,15,12,11,502.00
2007,07,15,12,12,498.50
2007,07,15,12,13,470.50
2007,07,15,12,14,411.30
2007,07,15,12,15,473.00
2007,07,15,12,16,513.50
2007,07,15,12,17,635.00
2007,07,15,12,18,635.00
2007,07,15,12,19,504.50
2007,07,15,12,20,365.30
2007,07,15,12,21,380.70
2007,07,15,12,22,450.70
2007,07,15,12,23,391.00
2007,07,15,12,24,347.60
2007,07,15,12,25,342.80
2007,07,15,12,26,326.30
2007,07,15,12,27,350.20
2007,07,15,12,28,370.20
2007,07,15,12,29,392.90
2007,07,15,12,30,414.20
2007,07,15,12,31,450.60
2007,07,15,12,32,468.20
2007,07,15,12,33,529.00
2007,07,15,12,34,561.90
2007,07,15,12,35,605.80
2007,07,15,12,36,619.40
2007,07,15,12,37,722.00
2007,07,15,12,38,680.20
2007,07,15,12,39,555.00
2007,07,15,12,40,485.00
2007,07,15,12,41,395.00
2007,07,15,12,42,406.70
2007,07,15,12,43,388.40
2007,07,15,12,44,380.00
2007,07,15,12,45,380.00
2007,07,15,12,46,444.60
2007,07,15,12,47,448.00
2007,07,15,12,48,432.20
2007,07,15,12,49,347.00
2007,07,15,12,50,360.00
2007,07,15,12,51,393.20
2007,07,15,12,52,443.00
2007,07,15,12,53,443.00
2007,07,15,12,54,925.30
2007,07,15,12,55,1148.20
2007,07,15,12,56,1136.00
2007,07,15,12,57,982.10
2007,07,15,12,58,990.00
2007,07,15,12,59,1127.10
2007,07,15,13,00,1088.00
2007,07,15,13,01,861.60
2007,07,15,13,02,369.00
2007,07,15,13,03,363.00
2007,07,15,13,04,358.20
2007,07,15,13,05,353.80
2007,07,15,13,06,352.00
2007,07,15,13,07,346.00
2007,07,15,13,08,351.60
2007,07,15,13,09,352.80
2007,07,15,13,10,373.80
2007,07,15,13,11,452.00
2007,07,15,13,12,723.20
2007,07,15,13,13,1227.00
2007,07,15,13,14,1227.00
2007,07,15,13,15,1227.00
2007,07,15,13,16,1306.40
2007,07,15,13,17,1374.50
2007,07,15,13,18,1385.00
2007,07,15,13,19,1027.70
2007,07,15,13,20,988.00
2007,07,15,13,21,988.00
2007,07,15,13,22,850.00
2007,07,15,13,23,415.70
2007,07,15,13,24,378.80
2007,07,15,13,25,386.00
2007,07,15,13,26,416.00
2007,07,15,13,27,484.60
2007,07,15,13,28,510.80
2007,07,15,13,29,510.00
2007,07,15,13,30,510.00
2007,07,15,13,31,499.70
2007,07,15,13,32,587.00
2007,07,15,13,33,587.00
2007,07,15,13,34,580.30
2007,07,15,13,35,568.00
2007,07,15,13,36,510.00
2007,07,15,13,37,452.00
2007,07,15,13,38,452.00
2007,07,15,13,39,452.00
2007,07,15,13,40,452.00
2007,07,15,13,41,452.00
2007,07,15,13,42,469.70
2007,07,15,13,43,649.70
2007,07,15,13,44,666.00
2007,07,15,13,45,615.70
2007,07,15,13,46,484.00
2007,07,15,13,47,472.00
2007,07,15,13,48,492.00
2007,07,15,13,49,680.70
2007,07,15,13,50,784.30
2007,07,15,13,51,788.00
2007,07,15,13,52,573.80
2007,07,15,13,53,577.40
2007,07,15,13,54,836.50
2007,07,15,13,55,901.70
2007,07,15,13,56,878.40
2007,07,15,13,57,870.00
2007,07,15,13,58,870.00
2007,07,15,13,59,978.60
2007,07,15,14,00,1081.10
2007,07,15,14,01,1042.50
2007,07,15,14,02,1017.70
2007,07,15,14,03,992.20
2007,07,15,14,04,995.10
2007,07,15,14,05,1032.00
2007,07,15,14,06,1032.00
2007,07,15,14,07,1032.00
2007,07,15,14,08,824.50
2007,07,15,14,09,552.50
2007,07,15,14,10,538.10
2007,07,15,14,11,599.70
2007,07,15,14,12,637.20
2007,07,15,14,13,677.40
2007,07,15,14,14,602.30
2007,07,15,14,15,598.00
2007,07,15,14,16,595.60
2007,07,15,14,17,558.20
2007,07,15,14,18,471.60
2007,07,15,14,19,443.00
2007,07,15,14,20,506.50
2007,07,15,14,21,540.00
2007,07,15,14,22,520.00
2007,07,15,14,23,520.00
2007,07,15,14,24,464.80
2007,07,15,14,25,455.00
2007,07,15,14,26,464.70
2007,07,15,14,27,552.00
2007,07,15,14,28,552.00
2007,07,15,14,29,552.00
2007,07,15,14,30,552.00
2007,07,15,14,31,836.50
2007,07,15,14,32,1113.80
2007,07,15,14,33,1112.20
2007,07,15,14,34,1114.00
2007,07,15,14,35,763.00
2007,07,15,14,36,701.00
2007,07,15,14,37,701.00
2007,07,15,14,38,751.90
2007,07,15,14,39,1095.10
2007,07,15,14,40,1167.00
2007,07,15,14,41,1167.00
2007,07,15,14,42,1130.30
2007,07,15,14,43,1090.00
2007,07,15,14,44,1090.00
2007,07,15,14,45,1090.00
2007,07,15,14,46,1090.00
2007,07,15,14,47,1090.00
2007,07,15,14,48,1090.00
2007,07,15,14,49,1090.00
2007,07,15,14,50,1090.00
2007,07,15,14,51,1090.00
2007,07,15,14,52,1090.00
2007,07,15,14,53,1090.00
2007,07,15,14,54,902.20
2007,07,15,14,55,718.90
2007,07,15,14,56,694.00
2007,07,15,14,57,694.00
2007,07,15,14,58,694.00
2007,07,15,14,59,909.50
2007,07,15,15,00,911.10
2007,07,15,15,01,890.00
2007,07,15,15,02,944.00
2007,07,15,15,03,779.60
2007,07,15,15,04,519.50
2007,07,15,15,05,506.00
2007,07,15,15,06,598.70
2007,07,15,15,07,645.00
2007,07,15,15,08,741.00
2007,07,15,15,09,759.00
2007,07,15,15,10,514.40
2007,07,15,15,11,464.00
2007,07,15,15,12,432.80
2007,07,15,15,13,343.20
2007,07,15,15,14,377.40
2007,07,15,15,15,410.00
2007,07,15,15,16,410.00
2007,07,15,15,17,348.70
2007,07,15,15,18,335.20
2007,07,15,15,19,358.90
2007,07,15,15,20,365.80
2007,07,15,15,21,365.70
2007,07,15,15,22,381.00
2007,07,15,15,23,381.00
2007,07,15,15,24,381.00
2007,07,15,15,25,642.60
2007,07,15,15,26,1035.00
2007,07,15,15,27,1035.00
2007,07,15,15,28,576.10
2007,07,15,15,29,379.00
2007,07,15,15,30,402.40
2007,07,15,15,31,342.20
2007,07,15,15,32,418.10
2007,07,15,15,33,425.40
2007,07,15,15,34,454.00
2007,07,15,15,35,454.00
2007,07,15,15,36,454.00
2007,07,15,15,37,454.00
2007,07,15,15,38,454.00
2007,07,15,15,39,454.00
2007,07,15,15,40,343.50
2007,07,15,15,41,381.90
2007,07,15,15,42,399.00
2007,07,15,15,43,451.60
2007,07,15,15,44,951.00
2007,07,15,15,45,946.70
2007,07,15,15,46,912.50
2007,07,15,15,47,874.90
2007,07,15,15,48,884.00
2007,07,15,15,49,818.60
2007,07,15,15,50,793.50
2007,07,15,15,51,848.20
2007,07,15,15,52,836.00
2007,07,15,15,53,838.80
2007,07,15,15,54,836.80
2007,07,15,15,55,909.00
2007,07,15,15,56,909.00
2007,07,15,15,57,909.00
2007,07,15,15,58,750.90
2007,07,15,15,59,563.50
2007,07,15,16,00,587.00
2007,07,15,16,01,821.70
2007,07,15,16,02,918.80
2007,07,15,16,03,914.00
2007,07,15,16,04,914.00
2007,07,15,16,05,914.00
2007,07,15,16,06,914.00
2007,07,15,16,07,914.00
2007,07,15,16,08,900.20
2007,07,15,16,09,868.00
2007,07,15,16,10,868.00
2007,07,15,16,11,529.80
2007,07,15,16,12,228.90
2007,07,15,16,13,202.40
2007,07,15,16,14,198.70
2007,07,15,16,15,199.00
2007,07,15,16,16,228.40
2007,07,15,16,17,758.20
2007,07,15,16,18,758.80
2007,07,15,16,19,758.00
2007,07,15,16,20,758.00
2007,07,15,16,21,742.70
2007,07,15,16,22,721.20
2007,07,15,16,23,717.70
2007,07,15,16,24,725.40
2007,07,15,16,25,723.40
2007,07,15,16,26,711.10
2007,07,15,16,27,709.10
2007,07,15,16,28,702.30
2007,07,15,16,29,711.00
2007,07,15,16,30,715.00
2007,07,15,16,31,717.00
2007,07,15,16,32,711.00
2007,07,15,16,33,703.80
2007,07,15,16,34,701.70
2007,07,15,16,35,698.90
2007,07,15,16,36,696.30
2007,07,15,16,37,687.90
2007,07,15,16,38,695.50
2007,07,15,16,39,691.00
2007,07,15,16,40,690.50
2007,07,15,16,41,689.00
2007,07,15,16,42,687.00
2007,07,15,16,43,681.40
2007,07,15,16,44,676.60
2007,07,15,16,45,675.00
2007,07,15,16,46,677.90
2007,07,15,16,47,679.00
2007,07,15,16,48,679.00
2007,07,15,16,49,680.00
2007,07,15,16,50,680.90
2007,07,15,16,51,688.90
2007,07,15,16,52,704.50
2007,07,15,16,53,721.00
2007,07,15,16,54,735.20
2007,07,15,16,55,721.70
2007,07,15,16,56,714.10
2007,07,15,16,57,719.00
2007,07,15,16,58,719.00
2007,07,15,16,59,681.20
2007,07,15,17,00,663.60
2007,07,15,17,01,654.00
2007,07,15,17,02,641.60
2007,07,15,17,03,634.50
2007,07,15,17,04,630.20
2007,07,15,17,05,629.00
2007,07,15,17,06,626.20
2007,07,15,17,07,627.20
2007,07,15,17,08,624.10
2007,07,15,17,09,621.20